Retour au catalogue

HULIANWANG DIGUI-173

ActifScienceLEO
NORAD 69576·PAYLOAD·🇨🇳 China

Lancé Jun 17, 2026 depuis Wenchang Space Launch Site

Loading…

Prochains Passages (prochaines 24 heures)

TLE

FraisSource: Space-Track

Époque: Sep 14, 2026, 10:39 UTC

1 69576U 26137E   26257.44409696 -.00000093  00000-0  66368-4 0  9992
2 69576  50.0022 275.7457 0000191 330.7756  29.3106 13.29326081 12204

Suivez HULIANWANG DIGUI-173 en temps réel avec AllMySat

Download on the App Store